TimeHST,TemperatureF,Dew PointF,Humidity,Sea Level PressureIn,VisibilityMPH,Wind Direction,Wind SpeedMPH,Gust SpeedMPH,PrecipitationIn,Events,Conditions,WindDirDegrees,DateUTC
12:53 AM,73.9,64.9,73,30.11,10.0,Calm,Calm,-,N/A,,Partly Cloudy,0,2012-05-18 10:53:00
1:53 AM,75.0,66.0,73,30.09,10.0,ENE,5.8,-,N/A,,Scattered Clouds,60,2012-05-18 11:53:00
2:53 AM,73.9,66.0,76,30.08,10.0,NNE,4.6,-,N/A,,Scattered Clouds,30,2012-05-18 12:53:00
3:53 AM,73.9,64.9,73,30.08,10.0,North,4.6,-,N/A,,Scattered Clouds,360,2012-05-18 13:53:00
4:53 AM,75.0,66.0,73,30.08,10.0,ENE,6.9,-,N/A,,Scattered Clouds,60,2012-05-18 14:53:00
5:53 AM,75.0,66.0,73,30.09,10.0,ENE,5.8,-,N/A,,Scattered Clouds,60,2012-05-18 15:53:00
6:53 AM,75.9,64.9,69,30.11,10.0,ENE,10.4,-,N/A,,Mostly Cloudy,60,2012-05-18 16:53:00
7:53 AM,78.1,64.0,62,30.11,10.0,NE,11.5,18.4,N/A,,Scattered Clouds,50,2012-05-18 17:53:00
8:53 AM,80.1,63.0,56,30.12,10.0,NE,10.4,-,N/A,,Scattered Clouds,40,2012-05-18 18:53:00
9:53 AM,81.0,61.0,50,30.12,10.0,NE,13.8,20.7,N/A,,Scattered Clouds,50,2012-05-18 19:53:00
10:53 AM,84.0,60.1,44,30.12,10.0,NE,13.8,-,N/A,,Scattered Clouds,40,2012-05-18 20:53:00
11:53 AM,84.0,57.9,41,30.10,10.0,NE,12.7,19.6,N/A,,Scattered Clouds,40,2012-05-18 21:53:00
12:53 PM,84.0,59.0,43,30.08,10.0,ENE,11.5,25.3,N/A,,Scattered Clouds,70,2012-05-18 22:53:00
1:53 PM,84.0,60.1,44,30.06,10.0,East,12.7,20.7,N/A,,Scattered Clouds,80,2012-05-18 23:53:00
2:53 PM,84.0,59.0,43,30.04,10.0,NE,19.6,24.2,N/A,,Scattered Clouds,50,2012-05-19 00:53:00
3:53 PM,84.0,60.1,44,30.04,10.0,NE,17.3,23.0,N/A,,Scattered Clouds,50,2012-05-19 01:53:00
4:53 PM,81.0,62.1,52,30.04,10.0,ENE,12.7,23.0,N/A,,Scattered Clouds,60,2012-05-19 02:53:00
5:53 PM,79.0,61.0,54,30.04,10.0,NNE,12.7,-,N/A,,Scattered Clouds,30,2012-05-19 03:53:00
6:53 PM,77.0,62.1,60,30.05,10.0,ENE,12.7,-,N/A,,Partly Cloudy,60,2012-05-19 04:53:00
7:53 PM,75.9,62.1,62,30.08,10.0,NE,11.5,-,N/A,,Partly Cloudy,50,2012-05-19 05:53:00
8:53 PM,75.0,62.1,64,30.10,10.0,ENE,11.5,-,N/A,,Partly Cloudy,60,2012-05-19 06:53:00
9:53 PM,75.0,61.0,62,30.12,10.0,NE,9.2,-,N/A,,Partly Cloudy,40,2012-05-19 07:53:00
10:53 PM,73.9,60.1,62,30.12,10.0,NE,6.9,-,N/A,,Partly Cloudy,40,2012-05-19 08:53:00
11:53 PM,73.9,61.0,64,30.11,10.0,NE,10.4,-,N/A,,Partly Cloudy,50,2012-05-19 09:53:00